Regional Weather Roundup
Issued by NWS

Home | Current Version | Previous Version | Graphics & Text | Print | Product List | Glossary On
Versions: 1 2 3 4 5 6 7 8 9 10 11 12 13 14 15 16 17 18 19 20 21 22 23 24 25 26 27 28 29 30 31 32 33 34 35 36 37 38 39 40 41 42 43 44 45 46 47 48 49 50
000
ASUS43 KLSX 010007
RWRMO

WEATHER SUMMARY FOR MISSOURI
NATIONAL WEATHER SERVICE SPRINGFIELD MO
700 PM CDT SAT APR 30 2016

NOTE: "FAIR" INDICATES FEW OR NO CLOUDS BELOW 12,000 FEET WITH NO
       SIGNIFICANT WEATHER AND/OR OBSTRUCTIONS TO VISIBILITY.
       CURRENT SKY AND/OR WEATHER CONDITIONS ARE NOT AVAILABLE FOR
       CHILLICOTHE AND FARMINGTON.

MOZ001>031-035>038-043-044-053-054-010100-
...NORTHERN AND WESTERN MISSOURI...

CITY           SKY/WX    TMP DP  RH WIND       PRES   REMARKS
KANSAS CTY INT PTSUNNY   64  50  60 NW9       29.77R
6HR MIN TEMP:  61; 6HR MAX TEMP:  67;

KANSAS C DTWN  MOSUNNY   67  48  50 W7        29.75R
6HR MIN TEMP:  64; 6HR MAX TEMP:  69;

LEE`S SUMMIT   CLOUDY    66  47  50 W10       29.77R
6HR MIN TEMP:  61; 6HR MAX TEMP:  68;

ST JOSEPH      CLOUDY    62  48  60 W5        29.77R
6HR MIN TEMP:  60; 6HR MAX TEMP:  65;

CHILLICOTHE      N/A     66  49  54 VRB5      29.78R
6HR MIN TEMP:  62; 6HR MAX TEMP:  73; 6HR PCP:  0.01;

KIRKSVILLE     MOSUNNY   63  56  78 N12       29.77R
6HR MIN TEMP:  57; 6HR MAX TEMP:  68; 6HR PCP:  0.01;


$$
MOZ066>068-077>081-088>096-101>105-010100-
...SOUTHWEST MISSOURI...

CITY           SKY/WX    TMP DP  RH WIND       PRES   REMARKS
SPRINGFIELD    SUNNY     69  54  58 W13       29.76R
6HR MIN TEMP:  69; 6HR MAX TEMP:  75;

JOPLIN         SUNNY     66  52  60 W6        29.78R
6HR MIN TEMP:  66; 6HR MAX TEMP:  71;

BRANSON        PTSUNNY   68  59  73 W6        29.78R

$$
MOZ032>034-039>042-045>050-055>058-069>072-010100-
...CENTRAL MISSOURI...

CITY           SKY/WX    TMP DP  RH WIND       PRES   REMARKS
COLUMBIA       SUNNY     70  55  59 NW13      29.75R
6HR MIN TEMP:  70; 6HR MAX TEMP:  76; 6HR PCP: TRACE;

JEFFERSON CITY SUNNY     73  56  54 NW8       29.73R
6HR MIN TEMP:  72; 6HR MAX TEMP:  76;

ROLLA          CLOUDY    71  60  68 W9        29.72S
6HR MIN TEMP:  66; 6HR MAX TEMP:  75; 6HR PCP:  0.10;

SEDALIA        MOSUNNY   68  53  58 W9        29.77R
6HR MIN TEMP:  68; 6HR MAX TEMP:  75;

WHITEMAN AFB   MOSUNNY   67  53  59 W6        29.75R
WARRENSBURG    MOSUNNY   66  50  55 SW6       29.76S
OSAGE BEACH    SUNNY     73  52  46 W7        29.74S

$$
MOZ051-052-059>065-010100-
...EAST CENTRAL MISSOURI...

CITY           SKY/WX    TMP DP  RH WIND       PRES   REMARKS
ST LOUIS INTL  MOCLDY    72  62  71 SE10      29.75R THUNDER
6HR MIN TEMP:  68; 6HR MAX TEMP:  77;

SPIRIT OF STL  TSTM      64  61  88 CALM      29.74R
6HR MIN TEMP:  62; 6HR MAX TEMP:  75; 6HR PCP:  0.06;

ST CHARLES     TSTM      60  59  96 VRB3      29.76R FOG
6HR MIN TEMP:  60; 6HR MAX TEMP:  74; 6HR PCP:  0.73;


$$
MOZ072>076-082>087-097>100-106>115-010100-
...SOUTH CENTRAL AND SOUTHEAST MISSOURI...

CITY           SKY/WX    TMP DP  RH WIND       PRES   REMARKS
CAPE GIRARDEAU MOCLDY    71  61  70 S6G16     29.79S
6HR MIN TEMP:  70; 6HR MAX TEMP:  75;

FARMINGTON     CLEAR     72  61  68 S8        29.77S
6HR MIN TEMP:  68; 6HR MAX TEMP:  74;

POPLAR BLUFF   CLEAR     73  61  65 S12       29.77S
6HR MIN TEMP:  69; 6HR MAX TEMP:  75;

WEST PLAINS    CLOUDY    71  60  68 SE5       29.78R
6HR MIN TEMP:  67; 6HR MAX TEMP:  75;


$$



USA.gov is the U.S. government's official web portal to all federal, state and local government web resources and services.